This is the latest recevied weather packets stored in our database for station/object XE2VP-WX. If no packets are shown the sender has not sent any weather packets the latest 10 day(s).
| Time | Temp. | Humidity | Pressure | Rain* | Wind** | Luminosity | Snow |
|---|---|---|---|---|---|---|---|
| 1777595526 | 26.67° C | 67% | 937.9 hPa | 0 mm | - | 13 W/m² | - |
| 1777595466 | 27.22° C | 67% | 937.9 hPa | 0 mm | - | 15 W/m² | - |
| 1777595406 | 27.22° C | 67% | 937.9 hPa | 0 mm | - | 16 W/m² | - |
| 1777595345 | 27.22° C | 67% | 937.8 hPa | 0 mm | - | 19 W/m² | - |
| 1777595286 | 27.22° C | 66% | 937.8 hPa | 0 mm | - | 22 W/m² | - |
| 1777595225 | 27.22° C | 65% | 937.9 hPa | 0 mm | - | 25 W/m² | - |
| 1777595166 | 27.22° C | 65% | 937.8 hPa | 0 mm | - | 28 W/m² | - |
| 1777595105 | 27.22° C | 65% | 937.8 hPa | 0 mm | - | 32 W/m² | - |
| 1777595046 | 27.22° C | 65% | 937.8 hPa | 0 mm | - | 37 W/m² | - |
| 1777594985 | 27.22° C | 65% | 937.8 hPa | 0 mm | - | 44 W/m² | - |
| 1777594926 | 27.22° C | 65% | 937.8 hPa | 0 mm | - | 51 W/m² | - |
| 1777594866 | 27.22° C | 65% | 937.8 hPa | 0 mm | - | 56 W/m² | - |
| 1777594806 | 27.22° C | 64% | 937.7 hPa | 0 mm | - | 60 W/m² | - |
| 1777594745 | 27.22° C | 64% | 937.7 hPa | 0 mm | - | 63 W/m² | - |
| 1777594685 | 27.22° C | 65% | 937.7 hPa | 0 mm | - | 65 W/m² | - |
| 1777594626 | 27.22° C | 65% | 937.7 hPa | 0 mm | - | 65 W/m² | - |
| 1777594565 | 27.22° C | 65% | 937.6 hPa | 0 mm | - | 65 W/m² | - |
| 1777594505 | 27.22° C | 65% | 937.6 hPa | 0 mm | - | 65 W/m² | - |
| 1777594446 | 27.22° C | 65% | 937.7 hPa | 0 mm | - | 62 W/m² | - |
| 1777594386 | 27.78° C | 65% | 937.7 hPa | 0 mm | - | 60 W/m² | - |
| 1777594325 | 27.78° C | 64% | 937.8 hPa | 0 mm | - | 61 W/m² | - |
| 1777594266 | 27.78° C | 64% | 937.6 hPa | 0 mm | - | 66 W/m² | - |
| 1777594205 | 27.78° C | 64% | 937.7 hPa | 0 mm | - | 77 W/m² | - |
| 1777594148 | 27.78° C | 64% | 937.7 hPa | 0 mm | - | 90 W/m² | - |
| 1777594085 | 27.78° C | 64% | 937.7 hPa | 0 mm | - | 100 W/m² | - |
* Rain latest hour (hover to see other rain measurements)
** Current wind speed in m/s (hover to see current wind gust speed)